When you browse on this site, cookies collect data to enhance your experience and personalize the content and advertising you see.
Visit our Privacy Policy to learn more. By continuing to use the site, you agree to this use of cookies and data.
  • In Portugal
  • List of Countries
  • For 7 days
  • Water Temperature
  • Weather Map
  • Weather Widgets
  • user-avatar
    Login

    Hourly Weather Tibissa

    Today, 15 October, Tuesday

    Time Temperature Precipitation Wind Pressure Humidity
    00:00 +19°C° 0 mm 3 mps 686 mmHg 65%
    01:00 +19°C° 0 mm 3 mps 686 mmHg 67%
    02:00 +18°C° 0 mm 3 mps 686 mmHg 68%
    03:00 +18°C° 0 mm 2 mps 686 mmHg 69%
    04:00 +18°C° 0 mm 2 mps 685 mmHg 70%
    05:00 +18°C° 0 mm 2 mps 686 mmHg 70%
    06:00 +18°C° 0 mm 2 mps 686 mmHg 69%
    07:00 +18°C° 0 mm 2 mps 687 mmHg 67%
    08:00 +19°C° 0.3 mm 2 mps 687 mmHg 63%
    09:00 +20°C° 0.3 mm 2 mps 687 mmHg 58%
    10:00 +21°C° 0.3 mm 2 mps 688 mmHg 54%
    11:00 +23°C° 0 mm 2 mps 688 mmHg 52%
    12:00 +23°C° 0 mm 2 mps 688 mmHg 50%
    13:00 +24°C° 0 mm 2 mps 688 mmHg 48%
    14:00 +24°C° 0.1 mm 2 mps 687 mmHg 48%
    15:00 +24°C° 0.1 mm 2 mps 687 mmHg 47%
    16:00 +24°C° 0.1 mm 2 mps 687 mmHg 47%
    17:00 +23°C° 0.6 mm 2 mps 687 mmHg 53%
    18:00 +21°C° 0.6 mm 2 mps 687 mmHg 58%
    19:00 +20°C° 0.6 mm 2 mps 687 mmHg 63%
    20:00 +19°C° 0.5 mm 2 mps 688 mmHg 68%
    21:00 +19°C° 0.5 mm 2 mps 688 mmHg 74%
    22:00 +18°C° 0.5 mm 2 mps 688 mmHg 79%
    23:00 +18°C° 0.3 mm 2 mps 688 mmHg 81%

    Tomorrow, 16 October, Wednesday

    Time Temperature Precipitation Wind Pressure Humidity
    00:00 +18°C° 0.3 mm 1 mps 688 mmHg 83%
    01:00 +18°C° 0.3 mm 1 mps 688 mmHg 85%
    02:00 +18°C° 0.3 mm 1 mps 688 mmHg 86%
    03:00 +16°C° 0.3 mm 1 mps 688 mmHg 88%
    04:00 +15°C° 0.3 mm 0 mps 687 mmHg 89%
    05:00 +16°C° 0.2 mm 1 mps 687 mmHg 89%
    06:00 +16°C° 0.2 mm 1 mps 687 mmHg 89%
    07:00 +16°C° 0.2 mm 1 mps 687 mmHg 89%
    08:00 +18°C° 0 mm 1 mps 688 mmHg 84%
    09:00 +19°C° 0 mm 1 mps 688 mmHg 80%
    10:00 +18°C° 0 mm 2 mps 689 mmHg 76%
    11:00 +19°C° 0.1 mm 2 mps 688 mmHg 69%
    12:00 +21°C° 0.1 mm 3 mps 688 mmHg 62%
    13:00 +22°C° 0.1 mm 3 mps 688 mmHg 55%
    14:00 +22°C° 0.3 mm 3 mps 688 mmHg 53%
    15:00 +22°C° 0.3 mm 3 mps 688 mmHg 51%
    16:00 +24°C° 0.3 mm 3 mps 688 mmHg 49%
    17:00 +22°C° 0.2 mm 3 mps 688 mmHg 53%
    18:00 +21°C° 0.2 mm 3 mps 687 mmHg 57%
    19:00 +20°C° 0.2 mm 3 mps 687 mmHg 61%
    20:00 +20°C° 0 mm 2 mps 688 mmHg 64%
    21:00 +19°C° 0 mm 2 mps 688 mmHg 67%
    22:00 +19°C° 0 mm 2 mps 688 mmHg 69%
    23:00 +19°C° 0 mm 2 mps 688 mmHg 72%

    Day after tomorrow, 17 October, Thursday

    Time Temperature Precipitation Wind Pressure Humidity
    00:00 +19°C° 0 mm 1 mps 688 mmHg 74%
    01:00 +19°C° 0 mm 1 mps 688 mmHg 76%
    02:00 +19°C° 0 mm 1 mps 687 mmHg 77%
    03:00 +18°C° 0 mm 1 mps 687 mmHg 78%
    04:00 +18°C° 0 mm 1 mps 687 mmHg 79%
    05:00 +18°C° 0 mm 1 mps 687 mmHg 80%
    06:00 +18°C° 0 mm 1 mps 687 mmHg 80%
    07:00 +18°C° 0 mm 1 mps 687 mmHg 81%
    08:00 +19°C° 0 mm 2 mps 687 mmHg 72%
    09:00 +20°C° 0 mm 2 mps 688 mmHg 64%
    10:00 +22°C° 0 mm 3 mps 688 mmHg 56%
    11:00 +24°C° 0.1 mm 3 mps 688 mmHg 52%
    12:00 +24°C° 0.1 mm 3 mps 688 mmHg 49%
    13:00 +25°C° 0.1 mm 4 mps 688 mmHg 45%
    14:00 +25°C° 0.4 mm 3 mps 688 mmHg 46%
    15:00 +25°C° 0.4 mm 3 mps 688 mmHg 48%
    16:00 +24°C° 0.4 mm 3 mps 687 mmHg 50%
    17:00 +24°C° 0.2 mm 3 mps 687 mmHg 53%
    18:00 +22°C° 0.2 mm 3 mps 687 mmHg 57%
    19:00 +21°C° 0.2 mm 3 mps 687 mmHg 61%
    20:00 +21°C° 0.1 mm 3 mps 687 mmHg 63%
    21:00 +20°C° 0.1 mm 3 mps 687 mmHg 65%
    22:00 +20°C° 0.1 mm 2 mps 688 mmHg 67%
    23:00 +20°C° 0 mm 2 mps 687 mmHg 67%

    18 October, Friday

    Time Temperature Precipitation Wind Pressure Humidity
    00:00 +19°C° 0 mm 2 mps 687 mmHg 68%
    01:00 +19°C° 0 mm 2 mps 687 mmHg 69%
    02:00 +20°C° 0 mm 1 mps 687 mmHg 69%
    03:00 +20°C° 0 mm 1 mps 687 mmHg 70%
    04:00 +19°C° 0 mm 1 mps 686 mmHg 70%
    05:00 +19°C° 0 mm 1 mps 686 mmHg 70%
    06:00 +19°C° 0 mm 1 mps 686 mmHg 69%
    07:00 +19°C° 0 mm 1 mps 686 mmHg 69%
    08:00 +21°C° 0 mm 1 mps 687 mmHg 63%
    09:00 +22°C° 0 mm 1 mps 687 mmHg 56%
    10:00 +23°C° 0 mm 1 mps 688 mmHg 50%
    11:00 +24°C° 0 mm 1 mps 688 mmHg 46%
    12:00 +25°C° 0 mm 1 mps 688 mmHg 42%
    13:00 +26°C° 0 mm 2 mps 688 mmHg 38%
    14:00 +26°C° 0 mm 2 mps 687 mmHg 36%
    15:00 +26°C° 0 mm 2 mps 687 mmHg 34%
    16:00 +26°C° 0 mm 2 mps 687 mmHg 32%
    17:00 +25°C° 0 mm 2 mps 687 mmHg 38%
    18:00 +24°C° 0 mm 2 mps 687 mmHg 43%
    19:00 +23°C° 0 mm 1 mps 687 mmHg 48%
    20:00 +23°C° 0 mm 1 mps 687 mmHg 52%
    21:00 +22°C° 0 mm 1 mps 687 mmHg 56%
    22:00 +21°C° 0 mm 1 mps 687 mmHg 59%
    23:00 +21°C° 0 mm 1 mps 687 mmHg 61%

    19 October, Saturday

    Time Temperature Precipitation Wind Pressure Humidity
    00:00 +21°C° 0 mm 1 mps 687 mmHg 63%
    01:00 +20°C° 0 mm 1 mps 686 mmHg 65%
    02:00 +20°C° 0 mm 1 mps 686 mmHg 66%
    03:00 +20°C° 0 mm 1 mps 686 mmHg 66%
    04:00 +18°C° 0 mm 2 mps 686 mmHg 66%
    05:00 +18°C° 0 mm 2 mps 686 mmHg 66%
    06:00 +18°C° 0 mm 2 mps 686 mmHg 67%
    07:00 +18°C° 0 mm 2 mps 686 mmHg 67%
    08:00 +20°C° 0 mm 3 mps 686 mmHg 60%
    09:00 +21°C° 0 mm 4 mps 687 mmHg 53%
    10:00 +23°C° 0 mm 4 mps 687 mmHg 46%
    11:00 +25°C° 0 mm 5 mps 687 mmHg 43%
    12:00 +26°C° 0 mm 5 mps 687 mmHg 40%
    13:00 +27°C° 0 mm 5 mps 687 mmHg 37%
    14:00 +27°C° 0 mm 5 mps 687 mmHg 37%
    15:00 +26°C° 0 mm 5 mps 686 mmHg 37%
    16:00 +26°C° 0 mm 5 mps 686 mmHg 37%
    17:00 +25°C° 0 mm 5 mps 686 mmHg 42%
    18:00 +23°C° 0 mm 4 mps 686 mmHg 46%
    19:00 +22°C° 0 mm 4 mps 686 mmHg 51%
    20:00 +22°C° 0 mm 4 mps 686 mmHg 52%
    21:00 +21°C° 0 mm 3 mps 686 mmHg 53%
    22:00 +21°C° 0 mm 3 mps 686 mmHg 55%
    23:00 +20°C° 0 mm 3 mps 686 mmHg 56%

    20 October, Sunday

    Time Temperature Precipitation Wind Pressure Humidity
    00:00 +20°C° 0 mm 3 mps 686 mmHg 57%
    01:00 +19°C° 0 mm 3 mps 686 mmHg 58%
    02:00 +19°C° 0 mm 3 mps 686 mmHg 59%
    03:00 +19°C° 0 mm 3 mps 685 mmHg 61%
    04:00 +18°C° 0 mm 3 mps 685 mmHg 62%
    05:00 +18°C° 0 mm 3 mps 685 mmHg 63%
    06:00 +18°C° 0 mm 3 mps 685 mmHg 63%
    07:00 +18°C° 0 mm 3 mps 685 mmHg 63%
    08:00 +20°C° 0 mm 4 mps 686 mmHg 57%
    09:00 +22°C° 0 mm 4 mps 687 mmHg 50%
    10:00 +23°C° 0 mm 5 mps 687 mmHg 44%
    11:00 +25°C° 0 mm 5 mps 687 mmHg 41%
    12:00 +26°C° 0 mm 5 mps 687 mmHg 38%
    13:00 +27°C° 0 mm 5 mps 687 mmHg 35%
    14:00 +27°C° 0 mm 5 mps 686 mmHg 36%
    15:00 +26°C° 0 mm 5 mps 686 mmHg 37%
    16:00 +26°C° 0 mm 5 mps 686 mmHg 38%
    17:00 +25°C° 0 mm 5 mps 685 mmHg 42%
    18:00 +23°C° 0 mm 4 mps 685 mmHg 45%
    19:00 +22°C° 0 mm 3 mps 685 mmHg 49%
    20:00 +21°C° 0 mm 3 mps 685 mmHg 50%
    21:00 +21°C° 0 mm 3 mps 686 mmHg 51%
    22:00 +20°C° 0 mm 3 mps 686 mmHg 52%
    23:00 +20°C° 0 mm 3 mps 686 mmHg 52%
    Show more